ALLMENDG1 Weather Reports


time (UTC)temp
F
wind
direction
speed
knots
gust
knots
rain 1hr
in
rain 24hr
in
rain mn
in
humidity
%
barometer
mb
20260506233209 45 119 1.7 0.0 0.00 0.00 0.00 91 1009.6
20260506230209 47 148 0.0 0.0 0.00 0.00 0.00 91 1009.6
20260506223209 47 165 2.6 0.0 0.00 0.00 0.00 91 1009.4
20260506220209 48 186 2.6 0.0 0.00 0.00 0.00 91 1009.1
20260506213209 48 288 6.1 0.0 0.00 0.00 0.19 91 1008.9
20260506210210 48 252 4.3 0.0 0.00 0.00 0.19 91 1008.7
20260506203210 49 242 5.2 0.0 0.00 0.00 0.19 91 1008.8
20260506200210 49 240 7.0 0.0 0.00 0.00 0.19 91 1008.5
20260506193215 50 248 7.0 0.0 0.00 0.00 0.19 91 1008.1
20260506190211 50 250 5.2 0.0 0.00 0.00 0.19 91 1007.7
20260506183209 50 235 10.4 0.0 0.00 0.00 0.19 91 1007.5
20260506180216 51 211 7.0 0.0 0.00 0.00 0.19 90 1007.1
20260506173210 52 250 8.7 0.0 0.00 0.00 0.19 90 1006.5
20260506170215 53 292 3.5 0.0 0.00 0.00 0.19 90 1006.0
20260506163210 53 234 6.1 0.0 0.00 0.00 0.15 89 1006.2
20260506160210 54 270 1.7 0.0 0.00 0.00 0.07 85 1006.1
20260506153210 56 256 8.7 0.0 0.00 0.00 0.03 79 1005.5
20260506150210 63 261 10.4 0.0 0.00 0.00 0.00 62 1004.0
20260506143210 64 240 3.5 0.0 0.00 0.00 0.00 64 1004.1
20260506140210 63 206 0.9 0.0 0.00 0.00 0.00 64 1004.0
20260506133211 63 219 4.3 0.0 0.00 0.00 0.00 64 1004.3
20260506130211 64 17 0.9 0.0 0.00 0.00 0.00 60 1004.3
20260506123210 64 197 1.7 0.0 0.00 0.00 0.00 61 1004.2
20260506120210 62 271 1.7 0.0 0.00 0.00 0.00 63 1004.3
20260506113217 62 132 0.0 0.0 0.00 0.00 0.00 67 1004.2
20260506110210 60 30 1.7 0.0 0.00 0.00 0.00 73 1004.5
20260506100213 60 178 2.6 0.0 0.00 0.00 0.00 76 1005.2
20260506093211 59 227 1.7 0.0 0.00 0.00 0.00 78 1005.2
20260506090211 57 158 0.9 0.0 0.00 0.00 0.00 82 1005.0
20260506083211 56 206 0.9 0.0 0.00 0.00 0.00 85 1005.1
20260506080212 55 139 0.0 0.0 0.00 0.00 0.00 87 1005.2
20260506073211 55 184 1.7 0.0 0.00 0.00 0.00 88 1005.6
20260506070212 54 163 0.9 0.0 0.00 0.00 0.00 89 1005.4
20260506060210 46 128 0.0 0.0 0.00 0.00 0.00 91 1005.4
20260506050211 46 128 0.9 0.0 0.00 0.00 0.00 91 1005.7
20260506043211 45 110 0.0 0.0 0.00 0.00 0.00 91 1005.9
20260506040211 46 149 0.0 0.0 0.00 0.00 0.00 91 1006.0
20260506033211 47 149 0.0 0.0 0.00 0.00 0.00 90 1006.2
20260506030212 47 151 0.0 0.0 0.00 0.00 0.00 90 1006.4
20260506023211 49 202 0.0 0.0 0.00 0.00 0.00 90 1006.6
20260506020212 50 202 0.0 0.0 0.00 0.00 0.00 91 1006.5
20260506013211 50 199 1.7 0.0 0.00 0.00 0.00 91 1007.0
20260506010212 49 115 0.0 0.0 0.00 0.00 0.00 90 1007.1
20260506003209 50 114 0.0 0.0 0.00 0.00 0.00 90 1006.8
20260506000211 50 144 0.9 0.0 0.00 0.00 0.00 90 1007.3